www.pogodaiklimat.ru

Погода и климат >> Архив погоды >> Россия >> Краснодарский край >> Туапсе


АРХИВ ПОГОДЫ в Туапсе

Время (UTC), дата Ветер
(напр.,м/с)
 
Видим.   Явления Облачность Т
(С)
Тd
(С)
f
(%)
Тe
(С)
Тes
(С)
Комфортность P
(гПа)
Po
(гПа)
Тmin
(С)
Tmax
(С)
R
(мм)
R24
(мм)
S
(см)
09 17.03 ЮЗ 7-11
{13}
10 км слаб. ливневой дождь 10/8 600 м
[Cb cap Ac trans Ci fib]
+6.5 +4.8 89 +1 +2 прохладно 1010.7 1003.2
12 17.03 ЮЗ 8-13
{13}
10 км слаб. ливневой дождь 10/8 600 м
[Cb cap Ac trans Ci fib]
+5.8 +3.9 88 0 0 холодно 1013.3 1005.7
15 17.03 З 4
{12}
20 км {ливн. осадки} 9/6 600 м
[Cb cap Ac trans Ci fib]
+7.3 +3.2 75 +4 +4 по сезону 1016.5 1009.0 +7.8 8
18 17.03 ЮВ 2 10 км {ливн. осадки} 10/8 600 м
[Cb cap Ac trans Ci fib]
+7.0 +3.3 77 +5 +5 по сезону 1019.1 1011.5
21 17.03 СВ 2 10 км в посл. час ливневой дождь 10/6 600 м
[Cb cap Ac trans Ci fib]
+5.1 +2.8 85 +3 +3 по сезону 1019.8 1012.2
00 18.03 С 2 4000 м слаб. ливневой дождь 10/10 600 м
[Cb cap]
+4.2 +2.2 87 +1 +1 по сезону 1021.2 1013.5
03 18.03 СВ 2 10 км в посл. час ливневой дождь 10/9 600 м
[Cb cap Ci fib]
+4.3 +2.0 85 +2 +2 по сезону 1021.6 1013.9 +3.9 7
06 18.03 СВ 2 20 км {ливн. осадки} 8/8 1000 м
[Cb cap]
+5.3 +2.6 83 +3 +4 по сезону 1023.3 1015.7
09 18.03 ЮЗ 3 20 км 6/6 1000 м
[Cu Sc]
+11.3 +4.6 63 +10 +14 тепло 1023.3 1015.8
12 18.03 З 3 20 км 8/8 1000 м
[Cb cap]
+11.5 +4.0 60 +10 +11 тепло 1023.2 1015.7
15 18.03 штиль 0 20 км {ливн. осадки} 6/3 1000 м
[Cu Sc Ac cast Ci fib]
+10.0 +4.4 68 +10 +10 тепло 1023.3 1015.8 +14.7 0.6
18 18.03 СВ 2 10 км {ливн. осадки} 6/6 1000 м
[Sc]
+8.9 +0.5 56 +8 +8 тепло 1022.8 1015.3
21 18.03 СВ 2 10 км ясно +9.0 +0.1 54 +8 +8 тепло 1022.6 1015.1
00 19.03 В 1 10 км ясно +6.8 +0.9 66 +6 +6 тепло 1023.8 1016.2
03 19.03 СВ 3 10 км 4/4 1000 м
[Sc]
+5.0 +1.1 76 +2 +2 по сезону 1024.2 1016.5 +4.8
06 19.03 СВ 1 20 км 9/8 1000 м
[Cb cap Ci sp]
+7.2 +2.3 71 +7 +8 по сезону 1024.6 1017.0 +4.3
09 19.03 ЮЗ 2 20 км 6/3 1000 м
[Cb cap Ci sp]
+12.8 +5.5 61 +12 +20 тепло 1024.4 1017.0
12 19.03 ЮЗ 3 20 км 3/3 1000 м
[Cu med, cong]
+13.3 +6.0 61 +12 +16 тепло 1023.0 1015.6
15 19.03 З 1 20 км ясно +10.5 +4.3 65 +10 +11 тепло 1021.7 1014.2 +14.5
18 19.03 В 1 10 км 9/8 600 м
[Cu med, cong Ac cast]
+7.7 +4.1 78 +7 +7 по сезону 1022.0 1014.4
21 19.03 С 2 10 км 3/3 1000 м
[Cu med, cong]
+6.6 +3.8 82 +4 +4 по сезону 1021.7 1014.1
00 20.03 СВ 2 10 км ясно +4.8 +2.3 84 +2 +2 по сезону 1020.8 1013.2
03 20.03 С 2 10 км ясно +6.8 +1.8 70 +5 +5 по сезону 1020.2 1012.6 +4.7
06 20.03 В 2 20 км ясно +9.2 +2.7 64 +8 +13 тепло 1020.3 1012.8
09 20.03 ЮЗ 2 20 км ясно +13.8 +6.7 62 +13 +25 опасность
простуды
1020.3 1012.9
12 20.03 ЮЗ 3 2000 м ясно +14.6 +5.9 56 +14 +20 тепло 1020.0 1012.6
15 20.03 ЮЗ 1 20 км ясно +11.8 +6.4 69 +12 +12 тепло 1020.4 1013.0 +15.5
18 20.03 штиль 0 10 км ясно +8.3 +5.8 84 +7 +7 тепло 1021.8 1014.3
21 20.03 СВ 1 10 км 4/0
[Ci fib]
+8.5 +5.6 82 +8 +8 тепло 1022.6 1015.1
00 21.03 В 1 10 км 6/6 1000 м
[Sc]
+8.5 +4.9 78 +8 +8 тепло 1023.4 1015.8
03 21.03 ЮВ 2 10 км 10/10 1000 м
[Sc]
+8.0 +4.6 79 +6 +6 по сезону 1024.3 1016.7 +7.6
06 21.03 Ю 2 10 км {морось} 10/10 1000 м
[Sc]
+8.1 +4.9 80 +6 +6 по сезону 1025.7 1018.1
09 21.03 ЮВ 3 20 км 10/8 1000 м
[Sc Ac trans Ci fib]
+9.4 +4.5 71 +7 +8 по сезону 1026.5 1018.9
12 21.03 Ю 2 20 км 10/6 1000 м
[Sc Ac trans Ci fib]
+10.2 +5.0 70 +9 +10 по сезону 1026.3 1018.8
15 21.03 ЮВ 2 20 км 9/5 1000 м
[Sc Ac trans Ci fib]
+9.4 +3.5 67 +8 +8 по сезону 1026.2 1018.6 +11.3 0.0
18 21.03 ЮВ 2 10 км 10/8 1000 м
[Sc Ac trans Ci fib]
+8.9 +3.8 70 +7 +7 по сезону 1026.9 1019.3
21 21.03 ЮВ 1 10 км 10/8 1000 м
[Cb cap Ac trans Ci fib]
+8.7 +4.0 72 +8 +8 тепло 1026.6 1019.0
00 22.03 ЮВ 3 4000 м слаб. ливневой дождь 10/10 600 м
[Cb cap]
+8.1 +4.6 79 +5 +5 по сезону 1025.9 1018.3
03 22.03 Ю 1 10 км слаб. ливневой дождь 10/8 1000 м
[Cb cap Ac trans Ci fib]
+7.3 +5.1 86 +6 +6 по сезону 1025.8 1018.2 +7.2 5
06 22.03 ЮВ 1 20 км {ливн. осадки} 10/8 1000 м
[Cb cap Ac cast]
+8.7 +4.5 75 +8 +8 по сезону 1026.2 1018.6 +7.0
09 22.03 ЮЗ 3 20 км 4/4 1000 м
[Cu Sc]
+12.2 +4.5 59 +11 +17 тепло 1025.8 1018.3
12 22.03 ЮЗ 3 20 км 10/4 1000 м
[Cu Sc Cc]
+10.4 +4.0 65 +9 +12 по сезону 1025.0 1017.5
15 22.03 ЮЗ 4 20 км 10/10 1000 м
[Cb cap]
+8.8 +2.9 66 +6 +6 по сезону 1024.1 1016.5 +13.3 0.0
18 22.03 ЮЗ 4 10 км 10/8 1000 м
[Cb cap Ci sp]
+8.6 +4.4 75 +6 +6 по сезону 1023.9 1016.3
21 22.03 ЮЗ 6-11
{11}
10 км 10/8 1000 м
[Cb cap Ci sp]
+8.4 +4.1 74 +5 +5 по сезону 1022.1 1014.5
00 23.03 ЮЗ 6-11
{11}
10 км 10/10 1000 м
[Cb cap]
+8.3 +4.5 77 +4 +4 по сезону 1020.0 1012.5
03 23.03 ЮЗ 6-12
{12}
4000 м слаб. ливневой дождь 10/10 600 м
[Cb cap]
+7.5 +4.7 82 +3 +3 по сезону 1017.1 1009.6 +7.4 0.3
06 23.03 С 2
{16}
10 км слаб. ливневой дождь {гроза} 10/10 600 м
[Cb cap]
+4.5 +2.7 88 +2 +2 прохладно 1017.7 1010.1 +4.3
09 23.03 В 2 20 км в посл. час ливневой дождь 10/10 600 м
[Cb cap]
+3.5 +1.1 84 +1 +1 холодно 1015.8 1008.2
12 23.03 Ю 1 20 км {ливн. осадки} 9/8 600 м
[Cb cap Ac trans Ci sp]
+7.4 +0.9 63 +7 +8 по сезону 1015.3 1007.8
15 23.03 С 1 20 км {ливн. осадки} 9/6 600 м
[Cb cap Ac trans Ci sp]
+5.7 -0.4 65 +5 +5 по сезону 1015.8 1008.2 +9.9 16
18 23.03 С 2 10 км {ливн. осадки} 3/3 1000 м
[Cu Sc]
+3.0 -1.0 75 0 0 холодно 1017.1 1009.4
21 23.03 СВ 2 10 км ясно +1.3 -1.1 84 -2 -2 холодно 1018.1 1010.4
00 24.03 СВ 3 10 км 4/4 1000 м
[Sc]
+0.7 -1.6 85 -4 -4 очень
холодно
1017.9 1010.2
03 24.03 СВ 2 10 км 4/4 600 м
[Cu Sc]
0.0 -2.1 86 -4 -4 очень
холодно
1018.5 1010.7 0.0 0.1

 

Местоположение метеостанции Туапсе (Краснодарский край, Россия): широта 44.10 долгота 39.07 высота над уровнем моря 62 м.

В архиве по умолчанию представлена погода в Туапсе за последнюю неделю. Архивные данные за месяц целиком и за предыдущие месяцы, начиная с января 2011 года, Вы можете получить, выбрав интересующий диапазон дат из раскрывающегося списка и нажав кнопку "Ввод!".


*Определитесь, кто Вы:
робот инопланетянин человек

Внимание! Время в таблицах - всемирное. Для получения местного времени необходимо прибавить поправку, которая равна 3 ч.

Смотрите также архив погоды в соседних городах и на ближайших метеорологических станциях:

Погода в Магри (Краснодарский край, Россия) (11 км)
Погода в Горном (Краснодарский край, Россия) (26 км)
Погода в Лазаревском (Краснодарский край, Россия) (30 км)
Погода в Джубге (Краснодарский край, Россия) (38 км)
Погода в Кичмае (Краснодарский край, Россия) (46 км)
Погода в Солох Ауле (Краснодарский край, Россия) (56 км)
Погода в Горячем Ключе (Краснодарский край, Россия) (59 км)
Погода в Сочи (Краснодарский край, Россия) (81 км)
Погода в Гузерипле (Адыгея, Россия) (85 км)
Погода в Шунтуке (Адыгея, Россия) (93 км)

Пояснения к столбцам:

Ветер - указаны скорость ветра в м/с - средняя за 10 мин, порывы в срок и между сроками (в фигурных скобках) и направление, откуда дует ветер: С - северный, СВ - северо-восточный, В - восточный, ЮВ - юго-восточный, Ю - южный, ЮЗ - юго-западный, З - западный, СЗ - северо-западный.
Видимость - горизонтальная дальность видимости в метрах или километрах. При видимости от 1 до 10 км при отсутствии осадков обычно наблюдается дымка, при ухудшении видимости до 1 км и менее - туман. В сухую погоду видимость может ухудшаться дымом, пылью или мглою.
Явления - указаны атмосферные явления, наблюдавшиеся в срок или в последний час перед сроком; фигурными скобками обозначены явления, наблюдавшиеся между сроками (за 1-3 часа до срока); квадратными скобками обозначены град или гололедные отложения с указанием их диаметра в мм.
Облачность - указаны через наклонную черту общая и нижняя облачность в баллах и высота нижней границы облаков в метрах; квадратными скобками обозначены формы облаков: Ci - перистые, Cs - перисто-слоистые, Cc - перисто-кучевые, Ac - высококучевые, As - высокослоистые, Sc - слоисто-кучевые, Ns - слоисто-дождевые, Cu - кучевые, Cb - кучево-дождевые. Подробнее классификацию облаков см. в Атласе облаков (PDF).
T - Температура воздуха - температура, измеренная на высоте 2 м над землей.
Td - Температура точки росы - температура, при понижении до которой содержащийся в воздухе водяной пар достигнет насыщения.
f - Относительная влажность воздуха - влажноcть воздуха, измеренная на высоте 2 м над землей.
Te - Эффективная температура - температура, которую ощущает одетый по сезону человек в тени. Характеристика душности погоды. При расчете учитывается влияние влажности воздуха и скорости ветра на теплоощущения человека.
Tes - Эффективная температура на солнце - температура, которую ощущает человек, с поправкой на солнечный нагрев. Характеристика знойности погоды. Зависит от высоты солнца над горизонтом, облачности и скорости ветра. Ночью, в пасмурную погоду, а также при ветре 12 м/с и более поправка равна нулю.
P - Атмосферное давление - приведенное к уровню моря атмосферное давление.
Po - Атмосферное давление - измеренное на уровне метеостанции атмосферное давление.
Tmin - Минимальная температура - минимум температуры воздуха на высоте 2 м над землей.
Tmax - Максимальная температура - максимум температуры воздуха на высоте 2 м над землей.
R - Количество осадков - Количество выпавших осадков за период времени, мм. При наведении курсора мыши на число - период времени, за который выпало указанное количество осадков.
R24 - Количество осадков - Количество выпавших осадков за 24 часа, мм.
S - Снежный покров - Высота снежного покрова, см. При наведении курсора мыши на число - состояние снежного покрова и степень покрытия местности в баллах.